Volver al catálogo

COSMOS 2251 DEB

ActivoLEO
NORAD 34433·DEBRIS·🇷🇺 Russia

Lanzado Jun 16, 1993 desde Plesetsk Cosmodrome

Loading…

Próximos Pases (próximas 24 horas)

TLE

ActualizadoSource: Space-Track

Época: Sep 14, 2026, 08:21 UTC

1 34433U 93036SA  26257.34794642  .00001258  00000-0  60520-3 0  9991
2 34433  74.0095  26.1718 0149387 101.1985 260.5990 14.14086785898444

Sigue COSMOS 2251 DEB en tiempo real con AllMySat

Download on the App Store